Погода в Цинъяне

Китай     24°49′04″N   118°34′33″E
темп.,
°C
ветер,
м/с
пор.,
м/с
влажн.,
%
обл.,
%
осадки,
мм/ч
давл.,
гПа
погр.,
м
6 мая, чт
чт623:00+19ссв39545 0.0 1018596
02:00+18ссв2461100 0.0 1017200
05:00+18св235898 0.0 101784
08:00+21св244173 0.0 1018498
11:00+25всв223592 0.0 1017761
14:00+27вюв324045 0.0 1015980
17:00+25юв3255100 0.0 1014550
20:00+22ююв127033 0.0 1015244
7 мая, пт
пт723:00+21юв11755 0.0 1015142
02:00+21зюз117439 0.0 101469
05:00+21юз1174100 0.0 101330
08:00+24юз126287 0.0 1014290
11:00+28ююз4551100 0.0 1014726
14:00+28ююз5755100 0.0 1011710
17:00+27ююз57656 0.0 1010449
20:00+24юз3580100 0.1 1011229
8 мая, сб
сб823:00+23всв2488100 1.7 1013208
02:00+21св369198 2.7 1012371
05:00+21св2391100 0.7 1012237
08:00+22всв1188100 1.6 1013200
11:00+26ююз2375100 1.9 1012785
14:00+28ююз2364100 1.9 10101014
17:00+26ю3473100 0.1 1009310
20:00+25юз1280100 0.1 1010124
9 мая, вс
вс923:00+24зюз1183100 0.1 101149
02:00+24зюз2285100 0.1 1009106
05:00+23зюз22895 0.2 100962
08:00+25зюз2376100 0.6 1010401
11:00+29ююз56597 0.0 1009950
14:00+30ююз675892 0.0 1007993
17:00+28ююз586414 0.0 1006606
20:00+25юз3676100 0.3 1008293
10 мая, пн
пн1023:00+24юз1287100 1.6 1009116
02:00+23юз258917 1.7 1007262
05:00+23юз259085 0.1 1007161
08:00+26юз486985 0.1 1008605
11:00+29ююз685397 0.0 1008832
14:00+30ююз785087 0.0 1007828
17:00+27ююз695888 0.0 1006558
20:00+24ююз411805 0.0 1006477